星链-32712 (STARLINK-32712)

导读

STARLINK-32712是美国太空探索技术公司星链星座的一员,于2024年12月29日发射入轨。星链项目旨在构建全球卫星互联网星座,该卫星承担低轨宽带通信服务任务,为全球偏远地区、网络覆盖薄弱区域提供高速网络接入,进一步完善星链星座的服务覆盖与通信容量。

Basic Information
目录编号:
62433
目录名称:
STARLINK-32712
国际标识:
2024-251B
轨道中心:
EARTH
卫星名称:
星链-32712
卫星全名:
星链-32712 (STARLINK-32712)
卫星状态:
在轨 (已飞行532 天)
发射日期:
2024-12-29 UTC
国别 :
美国 (US)
星等 :
--
Orbit Information
数据来源 国际轨道数据 AOE轨道数据
星历时间 2026-06-14T06:39:16+0800
12小时前
查看轨道信息
2026-06-13T06:00:00+0800
1天前
查看轨道信息
半长轴 6853.356km 6853.383km
偏心率 0.00014 0.0001159
轨道倾角 53.160° 53.160°
近地点辐角 87.623° 101.903°
升交点赤经 248.337° 253.108°
平近点角 272.493° 356.142°
近地点 474.259km 474.451km
远地点 476.179km 476.041km
周期 94.105分钟 94.106分钟
每日圈数 15.301987 15.301899
Detailed Information
固有亮度:
5
最大亮度:
2.5
卫星平台:
Starlink V1.0
覆盖范围:
全球
运营商:
太空探索技术公司
运营商所在国:
美国
制造商(研发单位):
太空探索技术公司
制造商所在国:
美国
使用方式:
暂无
Satellite Introduction
Starlink 计划是 SpaceX 推出的全球卫星互联网项目,通过发射低轨道卫星,为全球尤其是偏远地区提供高速、低延迟的互联网服务。自 2019 年起,Starlink 已部署数千颗卫星,旨在缩小全球数字鸿沟,推动互联网普及。该项目还为军事、航空等行业提供通信支持,带来广泛经济效益。
2D Orbit Map
3D Orbit Map
Orbit Altitude Analysis Chart
Orbit Inclination Analysis Chart
Orbit Comprehensive Analysis Chart
View Comprehensive Chart